This is the latest recevied weather packets stored in our database for station/object KB4KY. If no packets are shown the sender has not sent any weather packets the latest 10 day(s).
| Time | Temp. | Humidity | Pressure | Rain* | Wind** | Luminosity | Snow |
|---|---|---|---|---|---|---|---|
| 1778039584 | 15° C | 95% | 1005.5 hPa | 2.54 mm | - | - | - |
| 1778039284 | 15.56° C | 95% | 1005.6 hPa | 2.79 mm | - | - | - |
| 1778038689 | 15.56° C | 95% | 1005.6 hPa | 3.3 mm | - | - | - |
| 1778038088 | 15° C | 95% | 1005.8 hPa | 3.81 mm | - | - | - |
| 1778037480 | 15.56° C | 95% | 1006.1 hPa | 4.06 mm | - | - | - |
| 1778037187 | 15.56° C | 95% | 1006.1 hPa | 3.81 mm | - | - | - |
| 1778036997 | 15.56° C | 95% | 1006.4 hPa | 3.56 mm | - | - | - |
| 1778036881 | 15.56° C | 95% | 1006.4 hPa | 3.56 mm | - | - | - |
| 1778036590 | 15.56° C | 93% | 1006.4 hPa | 3.05 mm | - | - | - |
| 1778036280 | 15.56° C | 92% | 1006.6 hPa | 1.78 mm | - | - | - |
| 1778035984 | 16.11° C | 92% | 1006.4 hPa | 1.52 mm | - | - | - |
| 1778035687 | 16.11° C | 92% | 1006.6 hPa | 1.27 mm | - | - | - |
| 1778035387 | 16.11° C | 90% | 1006.5 hPa | 0.76 mm | - | - | - |
| 1778035080 | 16.11° C | 90% | 1006.7 hPa | 0.76 mm | - | - | - |
| 1778034784 | 16.67° C | 89% | 1006.6 hPa | 0.51 mm | - | - | - |
| 1778034481 | 16.67° C | 89% | 1006.5 hPa | 0.25 mm | - | - | - |
| 1778034192 | 16.67° C | 88% | 1006.7 hPa | 0 mm | - | - | - |
| 1778033881 | 17.22° C | 87% | 1006.7 hPa | 0 mm | - | - | - |
| 1778033287 | 17.22° C | 84% | 1006.7 hPa | 0 mm | - | - | - |
| 1778032986 | 17.78° C | 82% | 1006.8 hPa | 0 mm | - | - | - |
| 1778032679 | 17.78° C | 80% | 1006.6 hPa | 0 mm | - | - | - |
| 1778032376 | 17.78° C | 80% | 1006.6 hPa | 0 mm | - | - | - |
| 1778032241 | 17.22° C | 83% | 1006.1 hPa | 0 mm | - | - | - |
| 1778031774 | 17.22° C | 82% | 1006 hPa | 0 mm | - | - | - |
| 1778031488 | 17.22° C | 83% | 1006.1 hPa | 0 mm | - | - | - |
* Rain latest hour (hover to see other rain measurements)
** Current wind speed in m/s (hover to see current wind gust speed)